Flag for Germany Weather past 2 weeks in Lörrach, Baden-Württemberg, Germany

Now
73 °F

Passing clouds.


Feels Like: 77 °F
Forecast: 57 / 77 °F
Wind: 9 mph from North

Location: Bale-Mulhouse

Current Time: Jul 31, 2015 at 5:56:24 PM

Latest Report: Jul 31, 2015 at 5:30 PM


Visibility: N/A

Pressure: 29.92 "Hg

Humidity: 44%

Dew point: 50 °F

Location of LörrachLocation

Historic Weather in Lörrach — Graph

°F

Lörrach temperature yesterday

Maximum temperature yesterday: 73 °F (at 2:30 PM)
Minimum temperature yesterday: 48 °F (at 2:30 AM)
Average temperature yesterday: 61 °F

Past Weeks' High & Low Weather Summary

 TemperatureHumidityPressure
High97 °F (Jul 17, 3:00 PM)100% (Jul 26, 5:00 AM)30.15 "Hg (Jul 26, 5:00 AM)
Low46 °F (Jul 26, 6:00 AM)22% (Jul 17, 4:30 PM)29.71 "Hg (Jul 24, 5:30 PM)
Average71 °F64%29.96 "Hg
* Reported Jul 16 4:00 PM — Jul 31 4:30 PM, Lörrach, Weather by CustomWeather, © 2015

Note: Actual official high and low records may vary slightly from our data, if they occured in-between our weather recording intervals... More about our weather records

Advertising

Lörrach weather history for previous 24 hours

 ConditionsComfort  
Time TempWeatherWind HumidityBarometerVisibility
4:30 PM
Fri, Jul 31
73 °FPassing clouds.9 mph44%29.92 "HgN/A
4:00 PM73 °FPassing clouds.9 mph44%29.95 "HgN/A
3:30 PM73 °FPassing clouds.8 mph44%29.95 "HgN/A
3:00 PM73 °FPassing clouds.12 mph44%29.98 "HgN/A
2:30 PM73 °FPassing clouds.10 mph41%29.98 "HgN/A
2:00 PM73 °FPassing clouds.8 mph38%29.98 "HgN/A
1:30 PM72 °FPassing clouds.8 mph44%30.01 "HgN/A
1:00 PM70 °FPartly sunny.8 mph43%30.01 "HgN/A
12:30 PM68 °FPartly sunny.7 mph49%30.01 "HgN/A
12:00 PM66 °FPartly sunny.8 mph52%30.04 "HgN/A
11:30 AM64 °FPartly sunny.6 mph56%30.04 "HgN/A
11:00 AM64 °FPassing clouds.7 mph52%30.04 "HgN/A
10:00 AM61 °FPassing clouds.6 mph59%30.04 "HgN/A
9:30 AM59 °FPassing clouds.6 mph63%30.07 "HgN/A
9:17 AM57 °FPassing clouds.6 mph67%30.07 "HgN/A
8:30 AM54 °FSunny.3 mph82%30.07 "Hg10 mi
8:00 AM52 °FSunny.3 mph88%30.07 "Hg10 mi
7:30 AM50 °FSunny.No wind88%30.07 "Hg10 mi
7:00 AM46 °FClear.2 mph93%30.07 "Hg10 mi
6:30 AM46 °FClear.2 mph87%30.07 "Hg10 mi
6:00 AM46 °FClear.3 mph87%30.07 "Hg10 mi
5:30 AM48 °FClear.3 mph87%30.07 "Hg10 mi
5:00 AM48 °FClear.5 mph87%30.07 "Hg10 mi
4:30 AM50 °FClear.3 mph88%30.07 "Hg10 mi
4:00 AM48 °FClear.6 mph87%30.07 "Hg10 mi
3:30 AM50 °FClear.6 mph82%30.07 "Hg10 mi
3:00 AM52 °FClear.6 mph82%30.07 "Hg10 mi
2:30 AM50 °FPassing clouds.5 mph88%30.07 "HgN/A
2:00 AM52 °FClear.5 mph82%30.07 "Hg10 mi
1:30 AM52 °FClear.7 mph82%30.07 "Hg10 mi
1:00 AM54 °FClear.6 mph77%30.07 "Hg10 mi
12:30 AM57 °FClear.8 mph67%30.07 "Hg10 mi
12:00 AM57 °FClear.8 mph67%30.07 "Hg10 mi
11:30 PM
Thu, Jul 30
52 °FClear.3 mph88%30.07 "Hg10 mi
11:00 PM54 °FClear.2 mph82%30.07 "Hg10 mi
10:30 PM55 °FClear.5 mph82%30.04 "Hg10 mi
10:00 PM57 °FSunny.3 mph72%30.04 "Hg10 mi
9:30 PM61 °FPassing clouds.3 mph63%30.04 "HgN/A
9:00 PM64 °FSunny.5 mph52%30.01 "Hg10 mi
8:30 PM66 °FPassing clouds.5 mph49%30.01 "HgN/A
8:00 PM70 °FSunny.3 mph40%30.01 "Hg10 mi
7:30 PM70 °FPassing clouds.8 mph35%30.01 "HgN/A
7:00 PM72 °FPassing clouds.9 mph33%30.01 "HgN/A
6:30 PM72 °FPassing clouds.9 mph33%30.01 "HgN/A
6:00 PM73 °FPassing clouds.9 mph31%30.01 "HgN/A
5:30 PM73 °FPassing clouds.9 mph33%30.01 "HgN/A
5:00 PM72 °FPassing clouds.9 mph36%30.01 "HgN/A
Weather by CustomWeather, © 2015

See weather overviewHow to use our weather pages